{"data":{"norad_id":64298,"epoch":"2026-09-20T20:22:22.586592Z","epoch_age_seconds":107507,"freshness":"FRESH","line1":"1 64298U 25123H   26263.84887253  .00009909  00000+0  34863-3 0  9999","line2":"2 64298  70.0002  59.9137 0004359 274.1492  85.9185 15.29583037 70910","mean_motion":15.29583037,"eccentricity":0.0004359,"inclination_deg":70.0002,"raan_deg":59.9137,"arg_perigee_deg":274.1492,"mean_anomaly_deg":85.9185,"bstar":0.00034863,"rev_number":7091,"period_min":94.143303447213,"perigee_km":474.06964947045,"apogee_km":480.04600832229,"semimajor_km":6855.1948288964,"source":"CELESTRAK","updated_at":"2026-09-21T09:00:35.306305Z"}}